OSCAR 7 1 7530U 74089B 26061.62419284 -.00000031 00000-0 98556-4 0 9996 2 7530 101.9970 73.7380 0012032 335.8556 136.5471 12.53696261347164 OSCAR 11 (UOSAT 2) 1 14781U 84021B 26061.49035373 .00001904 00000-0 20074-3 0 9995 2 14781 97.7935 28.3556 0007769 165.2839 194.8606 14.90474551241231 OSCAR 19 (LUSAT) 1 20442U 90005G 26061.64394796 .00000188 00000-0 83962-4 0 9998 2 20442 98.8940 80.4714 0012067 154.0285 206.1506 14.34084473887121 EYESAT A 1 22825U 93061C 26061.78442457 .00000138 00000-0 69588-4 0 9996 2 22825 98.6997 129.1889 0009258 57.6274 302.5803 14.30910299691782 ITAMSAT 1 22826U 93061D 26061.72552401 .00000162 00000-0 77953-4 0 9994 2 22826 98.6945 129.0367 0009566 42.3891 317.8029 14.31334105692084 RADIO ROSTO 1 23439U 94085A 26061.60040448 -.00000016 00000-0 75653-3 0 9995 2 23439 64.8147 115.5996 0152413 23.3657 337.4100 11.27583756283883 JAS 2 1 24278U 96046B 26061.62317689 -.00000014 00000-0 22091-4 0 9999 2 24278 98.5393 284.9983 0350132 13.0944 347.9005 13.53268404458753 TECHSAT 1B 1 25397U 98043D 26061.50493037 .00000111 00000-0 68119-4 0 9998 2 25397 99.0018 51.6019 0001855 130.8341 229.2998 14.24403781436149 ISS (ZARYA) 1 25544U 98067A 26061.54331036 .00009842 00000-0 19033-3 0 9992 2 25544 51.6317 107.6867 0008241 149.4104 210.7366 15.48401384555220 PCSAT 1 26931U 01043C 26061.64344242 .00000210 00000-0 10924-3 0 9995 2 26931 67.0510 159.8353 0007022 265.3529 94.6771 14.31907768275193 SAUDISAT 1C 1 27607U 02058C 26061.53568897 .00002000 00000-0 25340-3 0 9992 2 27607 64.5510 98.8982 0075068 281.9553 77.3144 14.82748605248643 CUTE-1 1 27844U 03031E 26061.53865418 .00000422 00000-0 20177-3 0 9995 2 27844 98.6778 71.4263 0010451 131.1798 229.0284 14.24259043176494 CUBESAT XI 4 1 27848U 03031J 26061.47397015 .00000370 00000-0 18145-3 0 9999 2 27848 98.6809 71.1608 0010073 147.8970 212.2824 14.23555341176199 MOZHAYETS 4 1 27939U 03042A 26061.87442041 .00001543 00000-0 24718-3 0 9992 2 27939 98.3425 243.2462 0010243 243.9753 247.9478 14.73229582199899 CUBESAT XI 5 1 28895U 05043F 26061.64784810 .00002536 00000-0 40907-3 0 9996 2 28895 98.2814 215.1395 0014355 179.3571 180.7656 14.72280863 86078 CUTE-1.7+APD 2 1 32785U 08021C 26061.88045833 .00009086 00000-0 58977-3 0 9992 2 32785 97.8192 41.2304 0010318 39.4800 320.7177 15.08251734969168 SEEDS 1 32791U 08021J 26061.52544139 .00022953 00000-0 82362-3 0 9996 2 32791 97.7503 54.6595 0002730 20.6846 339.4503 15.28701509970974 YUBELEINY 1 32953U 08025A 26061.78670068 .00000049 00000-0 28259-3 0 9996 2 32953 82.4985 61.6189 0019265 180.2952 179.8120 12.43175874806476 KKS-1 (KISEKI) 1 33499U 09002H 26061.78430989 .00002291 00000-0 29010-3 0 9991 2 33499 98.1190 342.5747 0006471 278.2947 81.7532 14.82796561920429 SWISSCUBE 1 35932U 09051B 26061.70310119 .00001519 00000-0 31106-3 0 9994 2 35932 98.4106 327.7220 0006594 173.5794 186.5492 14.62235995873598 BEESAT 1 35933U 09051C 26061.72684061 .00001272 00000-0 26627-3 0 9995 2 35933 98.4036 327.6002 0004825 184.8887 175.2267 14.61513291873638 ITUPSAT 1 1 35935U 09051E 26061.69356917 .00001151 00000-0 24857-3 0 9998 2 35935 98.4125 326.8680 0006783 200.9387 159.1536 14.60249665873193 XIWANG-1 (HOPE-1) 1 36122U 09072B 26061.84504955 .00000343 00000-0 10129-2 0 9992 2 36122 100.3897 17.4359 0008017 114.0765 246.1188 13.16436857779011 TISAT 1 1 36799U 10035E 26061.81287160 .00025810 00000-0 96804-3 0 9997 2 36799 98.0646 359.3470 0000180 143.8613 216.2636 15.27224236851447 JUGNU 1 37839U 11058B 26061.80329812 .00000502 00000-0 12266-3 0 9990 2 37839 19.9596 234.7346 0018632 341.6497 143.8293 14.13737032743953 SRMSAT 1 37841U 11058D 26061.50080932 .00000475 00000-0 11391-3 0 9994 2 37841 19.9732 345.2138 0011888 110.4701 67.1482 14.11544423742721 HORYU 2 1 38340U 12025D 26061.78281506 .00005494 00000-0 57130-3 0 9991 2 38340 98.2002 190.5290 0008745 163.6681 196.4819 14.90288214732876 STRAND 1 1 39090U 13009E 26061.46258252 .00000465 00000-0 17107-3 0 9997 2 39090 98.3880 244.3341 0008605 182.8724 177.2415 14.37087200681735 CUBEBUG 1 1 39153U 13018D 26061.61920079 .00005419 00000-0 48173-3 0 9998 2 39153 98.1500 216.9523 0012385 139.6185 220.5957 14.96498197695127 ZACUBE 1 39417U 13066B 26061.86043747 .00006102 00000-0 48380-3 0 9999 2 39417 97.8182 23.6506 0041555 243.0931 116.6044 15.00236927664783 TRITON 1 1 39427U 13066M 26061.84799782 .00004727 00000-0 57405-3 0 9994 2 39427 97.8305 334.0956 0089669 220.1964 139.2595 14.81153337658347 GOMX 1 1 39430U 13066Q 26061.80947065 .00002226 00000-0 34024-3 0 9997 2 39430 97.6574 268.9434 0130659 59.4061 301.9958 14.69065451654296 HUMSAT D 1 39433U 13066T 26061.56297787 .00877160 35625-3 19629-2 0 9996 2 39433 97.4841 73.9995 0006834 161.4567 198.6960 15.97804823670324 CUBEBUG 2 1 39440U 13066AA 26061.86115483 .00007706 00000-0 72433-3 0 9999 2 39440 97.8806 10.5236 0059455 21.5397 338.8304 14.92848010661124 FUNCUBE 1 1 39444U 13066AE 26061.80574300 .00010543 00000-0 68338-3 0 9996 2 39444 97.8166 31.2276 0036526 203.0732 156.8857 15.07748353663629 UWE-3 1 39446U 13066AG 26061.77418278 .00006526 00000-0 57209-3 0 9996 2 39446 97.8592 17.2799 0048822 316.3479 43.3885 14.96081032661660 UNISAT 6 1 40012U 14033C 26061.67804475 .00003980 00000-0 43566-3 0 9991 2 40012 97.7708 216.4004 0046470 60.5563 300.0279 14.87572265630322 DUCHIFAT 1 1 40021U 14033M 26061.65992116 .00061132 00000-0 11308-2 0 9990 2 40021 98.0649 107.2642 0006730 103.7113 256.4886 15.48814794639186 QB50P1 1 40025U 14033R 26061.58353834 .00010827 00000-0 56154-3 0 9998 2 40025 98.0998 65.3871 0007539 221.3310 138.7351 15.16330216636867 OBJECT G 1 40905U 15049G 26061.86630012 .00036852 00000-0 48096-3 0 9992 2 40905 97.4729 100.0979 0004429 235.1475 124.9365 15.58594504579849 LILACSAT 2 1 40908U 15049K 26061.85620057 .00020066 00000-0 38883-3 0 9995 2 40908 97.4817 94.8443 0005596 279.9056 80.1562 15.47723029579287 LQSAT 1 40958U 15057A 26061.82297546 .00001008 00000-0 15089-3 0 9997 2 40958 97.6653 60.4955 0015502 257.4257 102.5220 14.76620330559618 CHUBUSAT 2 1 41338U 16012B 26061.78612181 .00008411 00000-0 37915-3 0 9990 2 41338 30.9985 299.0345 0008903 69.0713 291.0880 15.19627827552214 CHUBUSAT 3 1 41339U 16012C 26061.88741275 .00006715 00000-0 32089-3 0 9991 2 41339 31.0054 305.5262 0009116 61.5453 298.6105 15.17526752552036 PRATHAM 1 41783U 16059A 26061.50748143 .00001005 00000-0 18626-3 0 9993 2 41783 97.8313 63.0745 0030864 195.9286 164.0952 14.67022800503872 ALSAT 1N 1 41789U 16059G 26061.80394420 .00001066 00000-0 18848-3 0 9990 2 41789 97.8030 69.8996 0026210 164.9752 195.2239 14.69096042504382